Location: The Saddle
(36.8333°N, 80.3417°W)
Time: 17:42:35
(UTC-04:00)

CUTE-I - Visible Passes

Search period start: 31 March 2023 00:00
Search period end: 10 April 2023 00:00
Orbit: 809 x 823 km, 98.7° (Epoch: 30 March)

Date Brightness Start Highest point End Pass type
(mag) Time Alt. Az. Time Alt. Az. Time Alt. Az.
31 Mar ? 06:13:25 10° ENE 06:14:48 11° E 06:16:10 10° ESE visible
02 Apr ? 20:07:31 10° SW 20:10:56 17° W 20:14:23 10° NW visible
04 Apr ? 06:24:19 10° ENE 06:27:20 15° E 06:30:20 10° SE visible
06 Apr ? 20:21:07 10° WSW 20:23:26 13° W 20:25:46 10° WNW visible
09 Apr ? 06:15:44 10° ENE 06:17:40 12° E 06:19:35 10° ESE visible
